< < Back
Terminal Aerodrome Forecast


Current Version              Previous Versions:   1  2  3  4  5  6  7  8  9  

Terminal Aerodrome Forecast

745
FTUS42 KTAE 302300
TAFABY
TAF
KABY 302334Z 0100/0124 06003KT P6SM OVC035
     FM010300 00000KT P6SM SKC
     FM011000 00000KT 4SM BR SKC
     FM011300 09004KT P6SM SKC
     FM011900 10005KT P6SM FEW040=



Latest METAR

253
SAUS70 KWBC 302300 RRE
MTRABY
METAR KABY 302253Z 00000KT 10SM OVC038 24/19 A2990 RMK AO2 SLP124
T02440194 $


USA.gov is the U.S. government's official web portal to all federal, state and local government web resources and services.